LINCON Weather Reports


time (UTC)temp
C
wind
direction
speed
KPH
gust
KPH
rain 1hr
cm
rain 24hr
cm
rain mn
cm
humidity
%
barometer
mb
20260507025512 13 350 4.8 12.9 0.00 0.00 0.00 85 1018.3
20260507025012 13 331 1.6 12.9 0.00 0.00 0.00 85 1018.3
20260507024512 14 338 0.0 12.9 0.00 0.00 0.00 85 1018.3
20260507024012 14 341 9.7 12.9 0.00 0.00 0.00 84 1018.2
20260507023512 14 351 8.0 12.9 0.00 0.00 0.00 84 1018.2
20260507023014 14 347 8.0 12.9 0.00 0.00 0.00 83 1018.2
20260507022512 14 0 0.0 0.0 0.00 0.00 0.00 83 1018.2
20260507022012 14 0 0.0 0.0 0.00 0.00 0.00 82 1018.2
20260507021512 14 0 0.0 0.0 0.00 0.00 0.00 81 1018.2
20260507021012 15 0 0.0 0.0 0.00 0.00 0.00 81 1018.2
20260507020512 15 0 0.0 0.0 0.00 0.00 0.00 81 1018.2
20260507020013 15 0 0.0 0.0 0.00 0.00 0.00 81 1018.3
20260507015513 15 0 0.0 0.0 0.00 0.00 0.00 80 1018.3
20260507015012 15 0 0.0 0.0 0.00 0.00 0.00 80 1018.4
20260507014512 15 0 0.0 0.0 0.00 0.00 0.00 80 1018.4
20260507014013 15 0 0.0 0.0 0.00 0.00 0.00 80 1018.4
20260507013512 15 0 0.0 0.0 0.00 0.00 0.00 80 1018.4
20260507013014 15 0 0.0 0.0 0.00 0.00 0.00 79 1018.5
20260507012515 15 0 0.0 0.0 0.00 0.00 0.00 79 1018.5
20260507012012 15 0 0.0 0.0 0.00 0.00 0.00 79 1018.5
20260507011513 15 0 0.0 9.7 0.00 0.00 0.00 79 1018.4
20260507011012 15 319 0.0 9.7 0.00 0.00 0.00 79 1018.5
20260507010512 15 355 0.0 9.7 0.00 0.00 0.00 79 1018.6
20260507010012 15 0 0.0 3.2 0.00 0.00 0.00 79 1018.6
20260507005512 15 0 0.0 3.2 0.00 0.00 0.00 79 1018.6
20260507005012 15 344 0.0 3.2 0.00 0.00 0.00 79 1018.6
20260507004512 15 0 0.0 0.0 0.00 0.00 0.00 78 1018.6
20260507004012 15 0 0.0 0.0 0.00 0.00 0.00 78 1018.6
20260507003512 15 0 0.0 0.0 0.00 0.00 0.00 78 1018.7
20260507003014 16 0 0.0 0.0 0.00 0.00 0.00 78 1018.6
20260507002512 16 0 0.0 0.0 0.00 0.00 0.00 78 1018.6
20260507002013 16 0 0.0 0.0 0.00 0.00 0.00 78 1018.6
20260507001512 16 0 0.0 0.0 0.00 0.00 0.00 78 1018.6
20260507001013 16 0 0.0 0.0 0.00 0.00 0.00 78 1018.7
20260507000512 16 0 0.0 0.0 0.00 0.00 0.00 78 1018.7
20260507000016 16 0 0.0 0.0 0.00 0.00 0.00 78 1018.7
20260506235512 16 0 0.0 0.0 0.00 0.00 0.00 78 1018.8
20260506235012 16 0 0.0 0.0 0.00 0.00 0.00 78 1018.8
20260506234513 16 0 0.0 0.0 0.00 0.00 0.00 78 1018.7
20260506234015 16 0 0.0 0.0 0.00 0.00 0.00 77 1018.8
20260506233514 16 0 0.0 0.0 0.00 0.00 0.00 77 1018.8
20260506233012 16 0 0.0 0.0 0.00 0.00 0.00 77 1018.9
20260506232512 16 0 0.0 0.0 0.00 0.00 0.00 76 1018.8
20260506232012 16 0 0.0 8.0 0.00 0.00 0.00 76 1018.9
20260506231512 16 0 0.0 8.0 0.00 0.00 0.00 76 1018.9
20260506230512 16 0 0.0 0.0 0.00 0.00 0.00 75 1018.9
20260506230013 16 0 0.0 0.0 0.00 0.00 0.00 75 1019.0
20260506225512 16 0 0.0 4.8 0.00 0.00 0.00 75 1019.0
20260506225012 16 0 0.0 4.8 0.00 0.00 0.00 75 1019.0
20260506224512 16 330 0.0 4.8 0.00 0.00 0.00 74 1019.0
20260506224013 16 324 0.0 6.4 0.00 0.00 0.00 74 1019.1
20260506223512 17 0 0.0 6.4 0.00 0.00 0.00 74 1019.1
20260506223016 17 0 0.0 6.4 0.00 0.00 0.00 74 1019.2
20260506222512 17 324 0.0 9.7 0.00 0.00 0.00 74 1019.2
20260506222012 17 337 0.0 9.7 0.00 0.00 0.00 73 1019.3
20260506221512 17 0 0.0 9.7 0.00 0.00 0.00 74 1019.2
20260506221012 17 329 0.0 9.7 0.00 0.00 0.00 74 1019.2
20260506220512 17 336 1.6 9.7 0.00 0.00 0.00 74 1019.1
20260506220012 17 327 0.0 9.7 0.00 0.00 0.00 74 1019.1
20260506215512 16 0 0.0 0.0 0.00 0.00 0.00 74 1019.1
20260506215012 16 0 0.0 0.0 0.00 0.00 0.00 74 1019.1
20260506214512 16 0 0.0 0.0 0.00 0.00 0.00 73 1019.0
20260506214012 16 0 0.0 0.0 0.00 0.00 0.00 73 1019.0
20260506213512 17 0 0.0 0.0 0.00 0.00 0.00 73 1018.9
20260506213012 17 0 0.0 0.0 0.00 0.00 0.00 73 1018.9
20260506212513 17 0 0.0 0.0 0.00 0.00 0.00 73 1018.9
20260506212012 17 0 0.0 0.0 0.00 0.00 0.00 73 1019.0
20260506211512 17 0 0.0 0.0 0.00 0.00 0.00 73 1019.0
20260506211012 16 0 0.0 0.0 0.00 0.00 0.00 73 1019.0
20260506210512 16 0 0.0 0.0 0.00 0.00 0.00 73 1019.0
20260506210012 16 0 0.0 0.0 0.00 0.00 0.00 73 1019.0
20260506205512 16 0 0.0 0.0 0.00 0.00 0.00 74 1019.0
20260506205013 16 0 0.0 0.0 0.00 0.00 0.00 74 1018.9
20260506204512 16 0 0.0 0.0 0.00 0.00 0.00 74 1018.9
20260506204012 16 0 0.0 0.0 0.00 0.00 0.00 75 1018.9
20260506203512 16 0 0.0 0.0 0.00 0.00 0.00 75 1018.8
20260506203012 16 0 0.0 0.0 0.00 0.00 0.00 74 1018.8
20260506202512 16 0 0.0 0.0 0.00 0.00 0.00 75 1018.8
20260506202011 16 0 0.0 0.0 0.00 0.00 0.00 75 1018.8
20260506201512 16 0 0.0 0.0 0.00 0.00 0.00 75 1018.8
20260506201012 16 0 0.0 0.0 0.00 0.00 0.00 74 1018.8
20260506200513 16 0 0.0 0.0 0.00 0.00 0.00 75 1018.8
20260506200012 16 0 0.0 0.0 0.00 0.00 0.00 75 1018.8
20260506195511 16 0 0.0 0.0 0.00 0.00 0.00 75 1018.8
20260506195012 16 0 0.0 0.0 0.00 0.00 0.00 77 1018.9
20260506194513 16 0 0.0 0.0 0.00 0.00 0.00 77 1018.9
20260506194012 15 0 0.0 0.0 0.00 0.00 0.00 77 1018.8
20260506193512 15 0 0.0 0.0 0.00 0.00 0.00 77 1018.8
20260506193013 15 0 0.0 0.0 0.00 0.00 0.00 77 1018.8
20260506192512 15 0 0.0 0.0 0.00 0.00 0.00 77 1018.8
20260506192012 15 0 0.0 0.0 0.00 0.00 0.00 77 1018.8
20260506191512 15 0 0.0 0.0 0.00 0.00 0.00 77 1018.8
20260506191012 15 0 0.0 0.0 0.00 0.00 0.00 77 1018.7
20260506190511 15 0 0.0 0.0 0.00 0.00 0.00 77 1018.8
20260506190018 15 0 0.0 0.0 0.00 0.00 0.00 77 1018.8
20260506185513 15 0 0.0 0.0 0.00 0.00 0.00 76 1018.8
20260506185012 15 0 0.0 0.0 0.00 0.00 0.00 76 1018.8
20260506184512 15 0 0.0 0.0 0.00 0.00 0.00 76 1018.8
20260506184012 16 0 0.0 0.0 0.00 0.00 0.00 76 1018.7
20260506183512 16 0 0.0 0.0 0.00 0.00 0.00 76 1018.7
20260506183012 16 0 0.0 0.0 0.00 0.00 0.00 76 1018.7
20260506182512 16 0 0.0 0.0 0.00 0.00 0.00 76 1018.6
20260506182011 16 0 0.0 0.0 0.00 0.00 0.00 76 1018.6
20260506181514 16 0 0.0 0.0 0.00 0.00 0.00 76 1018.5
20260506181012 16 0 0.0 0.0 0.00 0.00 0.00 76 1018.4
20260506180512 15 0 0.0 0.0 0.00 0.00 0.00 76 1018.4
20260506180012 15 0 0.0 0.0 0.00 0.00 0.00 76 1018.3
20260506175629 15 0 0.0 0.0 0.00 0.00 0.00 76 1018.3
20260506175512 15 0 0.0 0.0 0.00 0.00 0.00 76 1018.3
20260506175012 15 0 0.0 0.0 0.00 0.00 0.00 76 1018.2
20260506174512 15 0 0.0 0.0 0.00 0.00 0.00 77 1018.2
20260506174012 15 0 0.0 0.0 0.00 0.00 0.00 77 1018.1
20260506173512 15 0 0.0 0.0 0.00 0.00 0.00 78 1018.1
20260506173012 15 0 0.0 0.0 0.00 0.00 0.00 78 1018.1
20260506172513 15 0 0.0 0.0 0.00 0.00 0.00 78 1018.1
20260506172012 15 0 0.0 0.0 0.00 0.00 0.00 79 1018.1
20260506171512 15 0 0.0 0.0 0.00 0.00 0.00 79 1018.0
20260506171012 15 0 0.0 0.0 0.00 0.00 0.00 79 1018.1
20260506170514 15 0 0.0 0.0 0.00 0.00 0.00 80 1018.0
20260506170012 15 0 0.0 0.0 0.00 0.00 0.00 80 1017.9
20260506165512 14 0 0.0 0.0 0.00 0.00 0.00 80 1017.8
20260506165013 14 0 0.0 0.0 0.00 0.00 0.00 80 1017.9
20260506164511 14 0 0.0 0.0 0.00 0.00 0.00 81 1018.0
20260506164012 14 0 0.0 0.0 0.00 0.00 0.00 81 1017.9
20260506163512 14 0 0.0 0.0 0.00 0.00 0.00 81 1017.9
20260506163012 14 0 0.0 0.0 0.00 0.00 0.00 82 1017.8
20260506162512 14 0 0.0 0.0 0.00 0.00 0.00 82 1017.8
20260506162012 14 0 0.0 0.0 0.00 0.00 0.00 82 1017.8
20260506161512 13 0 0.0 0.0 0.00 0.00 0.00 83 1017.7
20260506161012 13 0 0.0 0.0 0.00 0.00 0.00 83 1017.8
20260506160512 13 0 0.0 0.0 0.00 0.00 0.00 83 1017.6
20260506160012 13 0 0.0 0.0 0.00 0.00 0.00 84 1017.7
20260506155512 13 0 0.0 0.0 0.00 0.00 0.00 84 1017.7
20260506155012 13 0 0.0 0.0 0.00 0.00 0.00 84 1017.7
20260506154511 13 0 0.0 0.0 0.00 0.00 0.00 84 1017.6
20260506154018 13 0 0.0 0.0 0.00 0.00 0.00 84 1017.5
20260506153512 13 0 0.0 0.0 0.00 0.00 0.00 85 1017.4
20260506153012 13 0 0.0 0.0 0.00 0.00 0.00 85 1017.5
20260506152511 13 0 0.0 0.0 0.00 0.00 0.00 86 1017.5
20260506152012 13 0 0.0 0.0 0.00 0.00 0.00 86 1017.2
20260506151512 13 0 0.0 0.0 0.00 0.00 0.00 86 1017.2
20260506151012 13 0 0.0 0.0 0.00 0.00 0.00 86 1017.1
20260506150511 13 0 0.0 0.0 0.00 0.00 0.00 86 1017.1
20260506150013 13 0 0.0 0.0 0.00 0.00 0.00 86 1017.2
20260506145511 12 0 0.0 0.0 0.00 0.00 0.00 86 1017.1
20260506145012 12 0 0.0 0.0 0.00 0.00 0.00 86 1016.9
20260506144512 12 0 0.0 0.0 0.00 0.00 0.00 86 1016.8
20260506144011 13 0 0.0 0.0 0.00 0.00 0.00 86 1017.0
20260506143512 13 0 0.0 0.0 0.00 0.00 0.00 86 1017.2
20260506143013 13 0 0.0 0.0 0.00 0.00 0.00 86 1017.1
20260506142511 13 0 0.0 0.0 0.00 0.00 0.00 86 1017.3
20260506142011 12 0 0.0 0.0 0.00 0.00 0.00 86 1017.2
20260506141511 12 0 0.0 0.0 0.00 0.00 0.00 86 1017.3
20260506141012 12 0 0.0 0.0 0.00 0.00 0.00 86 1017.2
20260506140511 12 0 0.0 0.0 0.00 0.00 0.00 86 1017.2
20260506140011 12 0 0.0 0.0 0.00 0.00 0.00 87 1017.2
20260506135511 12 0 0.0 0.0 0.00 0.00 0.00 87 1017.2
20260506135012 12 0 0.0 0.0 0.00 0.00 0.00 87 1017.1
20260506134511 12 0 0.0 0.0 0.00 0.00 0.00 87 1017.0
20260506134011 12 0 0.0 0.0 0.00 0.00 0.00 86 1016.8
20260506133511 12 0 0.0 0.0 0.00 0.00 0.00 86 1016.8
20260506133012 12 0 0.0 0.0 0.00 0.00 0.00 86 1016.7
20260506132511 12 0 0.0 0.0 0.00 0.00 0.00 86 1016.7
20260506132011 12 0 0.0 0.0 0.00 0.00 0.00 86 1016.7
20260506131511 12 0 0.0 0.0 0.00 0.00 0.00 86 1016.7
20260506131012 12 0 0.0 0.0 0.00 0.00 0.00 86 1016.7
20260506130511 12 0 0.0 0.0 0.00 0.00 0.00 86 1016.8
20260506130013 12 0 0.0 0.0 0.00 0.00 0.00 86 1016.7
20260506125511 12 0 0.0 0.0 0.00 0.00 0.00 86 1016.7
20260506125011 12 0 0.0 0.0 0.00 0.00 0.00 86 1016.5
20260506124511 12 0 0.0 0.0 0.00 0.00 0.00 86 1016.4
20260506124011 12 0 0.0 0.0 0.00 0.00 0.00 86 1016.4
20260506123511 12 0 0.0 0.0 0.00 0.00 0.00 86 1016.3
20260506123011 12 0 0.0 0.0 0.00 0.00 0.00 86 1016.3
20260506122511 12 0 0.0 0.0 0.00 0.00 0.00 86 1016.3
20260506122012 12 0 0.0 0.0 0.00 0.00 0.00 86 1016.2
20260506121511 12 0 0.0 0.0 0.00 0.00 0.00 85 1016.1
20260506121011 12 0 0.0 0.0 0.00 0.00 0.00 85 1016.1
20260506120511 12 0 0.0 0.0 0.00 0.00 0.00 85 1016.2
20260506120013 12 0 0.0 0.0 0.00 0.00 0.00 85 1016.2
20260506115511 12 0 0.0 0.0 0.00 0.00 0.00 85 1016.2
20260506115011 12 0 0.0 0.0 0.00 0.00 0.00 85 1016.1
20260506114512 12 0 0.0 0.0 0.00 0.00 0.00 85 1016.1
20260506114013 12 0 0.0 0.0 0.00 0.00 0.00 85 1016.1
20260506113511 12 0 0.0 0.0 0.00 0.03 0.00 85 1016.1
20260506113011 12 0 0.0 0.0 0.00 0.03 0.00 85 1016.2
20260506112511 12 0 0.0 0.0 0.00 0.03 0.00 84 1016.1
20260506112011 12 0 0.0 0.0 0.00 0.03 0.00 84 1016.0
20260506111511 13 0 0.0 0.0 0.00 0.03 0.00 84 1016.1
20260506111013 13 0 0.0 0.0 0.00 0.03 0.00 84 1016.1
20260506110512 13 0 0.0 0.0 0.00 0.03 0.00 84 1016.1
20260506110013 13 0 0.0 0.0 0.00 0.03 0.00 84 1016.1
20260506105511 13 0 0.0 0.0 0.00 0.03 0.00 84 1016.0
20260506105011 13 0 0.0 0.0 0.00 0.03 0.00 84 1016.1
20260506104512 12 0 0.0 0.0 0.00 0.03 0.00 85 1016.0
20260506104011 13 0 0.0 0.0 0.00 0.03 0.00 85 1015.9
20260506103514 13 0 0.0 0.0 0.00 0.03 0.00 85 1015.8
20260506103011 13 0 0.0 0.0 0.00 0.03 0.00 85 1015.9
20260506102511 13 0 0.0 0.0 0.00 0.03 0.00 85 1015.8
20260506102013 13 0 0.0 0.0 0.00 0.03 0.00 85 1015.7
20260506101639 13 0 0.0 0.0 0.00 0.03 0.00 85 1015.6
20260506101511 13 0 0.0 0.0 0.00 0.03 0.00 85 1015.6
20260506101012 13 0 0.0 0.0 0.00 0.03 0.00 85 1015.6
20260506100511 13 0 0.0 0.0 0.00 0.03 0.00 85 1015.6
20260506100011 13 0 0.0 0.0 0.00 0.03 0.00 85 1015.5
20260506095628 13 0 0.0 0.0 0.00 0.03 0.00 85 1015.6
20260506095511 13 0 0.0 0.0 0.00 0.03 0.00 85 1015.6
20260506095012 13 0 0.0 0.0 0.00 0.03 0.00 85 1015.5
20260506094512 13 0 0.0 0.0 0.00 0.03 0.00 86 1015.4
20260506094012 13 0 0.0 0.0 0.00 0.03 0.00 86 1015.4
20260506093511 13 0 0.0 0.0 0.00 0.03 0.00 86 1015.4
20260506093011 13 0 0.0 0.0 0.00 0.03 0.00 86 1015.3
20260506092511 13 0 0.0 0.0 0.00 0.03 0.00 85 1015.3
20260506092011 13 0 0.0 0.0 0.00 0.03 0.00 85 1015.3
20260506091512 13 0 0.0 0.0 0.00 0.03 0.00 85 1015.3
20260506091011 13 0 0.0 0.0 0.00 0.03 0.00 86 1015.2
20260506090511 13 0 0.0 0.0 0.00 0.03 0.00 86 1015.2
20260506090011 13 0 0.0 0.0 0.00 0.03 0.00 86 1015.2
20260506085511 13 0 0.0 0.0 0.00 0.03 0.00 86 1015.2
20260506085103 13 0 0.0 0.0 0.00 0.03 0.00 86 1015.1
20260506085011 13 0 0.0 0.0 0.00 0.03 0.00 86 1015.1
20260506084512 13 0 0.0 0.0 0.00 0.03 0.00 86 1015.1
20260506084011 13 0 0.0 0.0 0.00 0.03 0.00 86 1015.0
20260506083511 13 0 0.0 0.0 0.00 0.03 0.00 86 1015.1
20260506083011 13 0 0.0 0.0 0.00 0.03 0.00 86 1015.1
20260506082514 13 0 0.0 0.0 0.00 0.03 0.00 86 1015.0
20260506082011 13 0 0.0 0.0 0.00 0.03 0.00 86 1015.0
20260506081511 13 0 0.0 0.0 0.00 0.03 0.00 86 1015.0
20260506081013 13 0 0.0 0.0 0.00 0.03 0.00 86 1015.0
20260506080512 13 0 0.0 0.0 0.00 0.03 0.00 86 1014.9
20260506073514 13 0 0.0 0.0 0.00 0.05 0.00 85 1014.6
20260506073012 13 0 0.0 0.0 0.00 0.05 0.00 85 1014.5
20260506072514 13 0 0.0 0.0 0.00 0.05 0.00 85 1014.4
20260506072011 13 0 0.0 0.0 0.00 0.05 0.00 85 1014.4
20260506071511 13 0 0.0 0.0 0.00 0.05 0.00 85 1014.3
20260506071011 13 0 0.0 0.0 0.00 0.05 0.00 85 1014.3
20260506070511 13 0 0.0 0.0 0.00 0.05 0.00 85 1014.2
20260506062511 13 0 0.0 0.0 0.00 0.05 0.00 84 1014.1
20260506062011 13 0 0.0 0.0 0.00 0.05 0.00 84 1014.1
20260506061511 13 0 0.0 0.0 0.00 0.05 0.00 84 1014.1
20260506061012 13 0 0.0 0.0 0.00 0.05 0.00 84 1014.1
20260506060511 13 0 0.0 0.0 0.00 0.05 0.00 84 1014.0
20260506051011 13 0 0.0 0.0 0.00 0.05 0.00 84 1014.1
20260506050511 13 0 0.0 0.0 0.00 0.05 0.00 84 1014.1
20260506045012 13 0 0.0 0.0 0.00 0.05 0.00 83 1014.0
20260506044511 13 0 0.0 0.0 0.00 0.05 0.00 83 1013.9
20260506044011 13 0 0.0 0.0 0.00 0.05 0.00 83 1013.8
20260506043514 13 0 0.0 0.0 0.00 0.05 0.00 83 1013.8
20260506043011 13 0 0.0 0.0 0.00 0.05 0.00 83 1013.7
20260506042511 13 0 0.0 0.0 0.00 0.05 0.00 83 1013.7
20260506042012 13 0 0.0 0.0 0.00 0.05 0.00 83 1013.7
20260506041511 14 0 0.0 0.0 0.00 0.05 0.00 83 1013.7
20260506041014 14 0 0.0 0.0 0.00 0.05 0.00 83 1013.6
20260506040511 14 0 0.0 0.0 0.00 0.05 0.00 83 1013.5
20260506040015 14 0 0.0 0.0 0.00 0.05 0.00 83 1013.5
20260506035011 14 0 0.0 0.0 0.00 0.05 0.00 83 1013.4
20260506034511 14 0 0.0 0.0 0.00 0.05 0.00 83 1013.3
20260506034011 14 0 0.0 0.0 0.00 0.05 0.00 82 1013.2
20260506033511 14 0 0.0 0.0 0.00 0.05 0.00 82 1013.1
20260506033011 14 0 0.0 0.0 0.00 0.05 0.00 83 1013.1
20260506032511 14 0 0.0 0.0 0.00 0.05 0.00 83 1013.0
20260506032011 14 0 0.0 12.9 0.00 0.05 0.00 83 1013.0
20260506031511 14 341 0.0 12.9 0.00 0.05 0.00 83 1013.0
20260506031014 14 345 8.0 12.9 0.00 0.05 0.00 82 1012.9
20260506030511 15 344 0.0 14.5 0.00 0.05 0.00 82 1012.9